Location: Estes Par
(40.3770°N, 105.5210°W)
Time: 11:58:50
(UTC-07:00)

Tiangong 2 - Pass Details

Date: 15 October 2017
Orbit: 386 x 390 km, 42.8° (Epoch: 13 December)

Event Time Altitude Azimuth Distance (km) Brightness Sun altitude
Exits shadow 06:42:42 - 287° (WNW) 1,546 3.5 -6.6°
Reaches altitude 10° 06:43:01 10° 287° (WNW) 1,416 3.3 -6.5°
Maximum altitude 06:46:13 77° 13° (NNE) 402 1.2 -5.9°
Drops below altitude 10° 06:49:25 10° 101° (E) 1,416 5.8 -5.3°
Sets 06:51:29 0° 103° (ESE) 2,270 7.7 -4.9°
